Wingett Run, Ohio
Current Conditions -  °F | °C
As of 4:22 AM on Thursday 27 Nov 2014 (Local Time) from KPKB Reporting Station
Haze Haze  
Wind Chill: 34°   Ceiling: 1400
Heat Index: 34°   Visibility: 1.7mi
Dew Point: 32°   Wind: 0mph
Humidity: 92%   Direction: NA
Pressure: 30.04"   Gusts: NA
Location:  39.54°N, 81.24°W
Report Text: KPKB 270922Z AUTO 00000KT 1 3/4SM BR SCT002 OVC014 01/00 A3004 RMK AO2 T00110000
Loading
Personal Weather Stations






























Interactive Weather Map New forecast layout! Learn more

10-Day Weather Forecast

Advertisements
Track Severe Weather on mobile